Powrót do katalogu

COSMOS 1275 DEB

AktywnyPO
NORAD 13473·DEBRIS·🇷🇺 Russia

Wystrzelony Jun 4, 1981 z Plesetsk Cosmodrome

Loading…

Następne Przeloty (najbliższe 24 godziny)

TLE

ŚwieżeSource: Space-Track

Epoka: Sep 14, 2026, 06:34 UTC

1 13473U 81053FV  26257.27398735  .00001959  00000-0  80044-3 0  9994
2 13473  82.8286 260.3501 0043849 130.1403 242.9407 14.26362987260533

Śledź COSMOS 1275 DEB w czasie rzeczywistym z AllMySat

Download on the App Store